Location: Bakhuizen
(52.8696°N, 5.4575°E)
Time: 07:46:46
(UTC+00:00)

SWARM A - Pass Details

Date: 11 May 2021
Orbit: 427 x 431 km, 87.4° (Epoch: 20 June)

Event Time Altitude Azimuth Distance (km) Brightness Sun altitude
Rises 20:44:24 0° 357° (N) 2,422 8.9 -10.1°
Reaches altitude 10° 20:46:27 10° 357° (N) 1,548 7.9 -10.3°
Maximum altitude 20:49:48 89° 274° (W) 439 4.2 -10.6°
Enters shadow 20:52:55 11° 179° (S) 1,445 6.4 -10.9°
